Location: Newark
(34.1333°N, 7.9667°W)
Time: 13:52:01
(UTC+00:00)

S-56A Canister/Altair - Pass Details

Date: 05 December 2021
Orbit: 634 x 2499 km, 38.9° (Epoch: 25 January)

Event Time Altitude Azimuth Distance (km) Brightness Sun altitude
Exits shadow 04:57:11 54° 123° (ESE) 854 7.9 -29.5°
Drops below altitude 10° 05:00:37 10° 116° (ESE) 2,044 10.6 -28.8°
Sets 05:02:45 0° 115° (ESE) 2,915 11.6 -28.3°
